星链-35860(STARLINK-35860)

导读

STARLINK-35860是美国SpaceX星链星座的成员卫星,于2025年12月4日发射入轨。星链项目旨在构建全球卫星互联网通信系统,为全球偏远地区、海洋上空等传统网络覆盖盲区提供低成本、低延迟的宽带互联网服务,这颗卫星进一步扩充了星链低轨星座的规模,助力提升星座全球覆盖密度与服务容量,推动SpaceX全球互联目标落地。

Basic Information
目录编号:
66881
目录名称:
STARLINK-35860
国际标识:
2025-283D
轨道中心:
EARTH
卫星名称:
星链-35860
卫星全名:
星链-35860(STARLINK-35860)
卫星状态:
在轨 (已飞行274 天)
发射日期:
2025-12-04 UTC
国别 :
美国 (US)
星等 :
--
Orbit Information
数据来源 国际轨道数据
星历时间: 2026-09-03T17:55:31+0800
1天前
查看轨道信息
半长轴: 6840.89km
偏心率: 0.0000922
轨道倾角: 53.159°
近地点辐角 97.944°
升交点赤经 277.299°
平近点角 262.167°
近地点: 462.122km
远地点: 463.384km
周期: 93.849分钟
每日圈数: 15.343834
Detailed Information
固有亮度:
5
最大亮度:
2.5
卫星平台:
Starlink V1.0
覆盖范围:
全球
运营商:
太空探索技术公司
运营商所在国:
美国
制造商(研发单位):
太空探索技术公司
制造商所在国:
美国
使用方式:
暂无
Satellite Introduction
Starlink 计划是 SpaceX 推出的全球卫星互联网项目,通过发射低轨道卫星,为全球尤其是偏远地区提供高速、低延迟的互联网服务。自 2019 年起,Starlink 已部署数千颗卫星,旨在缩小全球数字鸿沟,推动互联网普及。该项目还为军事、航空等行业提供通信支持,带来广泛经济效益。
2D Orbit Map
3D Orbit Map
Orbit Altitude Analysis Chart
Orbit Inclination Analysis Chart
Orbit Comprehensive Analysis Chart
View Comprehensive Chart
Conjunction Data List
Event ID Objects TCA Miss Dist (km) Collision Risk Probability Collision Risk Index (CRI) Action
CDM_260906-110706-610106-688121
2026-09-06T
11:07:14+0000
0.318 km
远距离
3.487099E-4 高风险 0.86
CDM_260905-012905-211706-688122
2026-09-05T
01:29:48+0000
0.503 km
远距离
1.317725E-4 高风险 0.77
CDM_260905-144705-211706-688121
2026-09-05T
14:47:02+0000
0.827 km
远距离
3.095729E-5 中风险 0.65
CDM_260831-062306-037206-688122
2026-08-31T
06:23:29+0000
1.409 km
极远距离
5.11335E-6 低风险 0.49
CDM_260905-162005-211706-688121
2026-09-05T
16:20:50+0000
1.405 km
极远距离
5.080069E-6 低风险 0.49
CDM_260904-235605-211706-688121
2026-09-04T
23:56:00+0000
1.501 km
极远距离
4.110473E-6 低风险 0.47
CDM_260831-044906-037206-688122
2026-08-31T
04:49:41+0000
1.987 km
极远距离
1.872749E-6 低风险 0.4
CDM_260906-124106-610106-688121
2026-09-06T
12:41:01+0000
2.175 km
极远距离
1.569279E-6 低风险 0.39
CDM_260905-030305-211706-688122
2026-09-05T
03:03:35+0000
2.371 km
极远距离
1.262789E-6 低风险 0.37
CDM_260905-071205-082906-688121
2026-09-05T
07:12:06+0000
2.904 km
极远距离
1.243114E-6 低风险 0.37